sat.trackr.live / text

‹ back to catalog

STARLINK-1553

NORAD 46348 · 2020-062Z

PAYLOAD ACTIVE UNKNOWN

§ Identity

Operator
Country
US
Launch date
2020-09-03
Launch site
AFETR
Launch vehicle
Mass (kg)
RCS (m²)

Purposes: comms

External: N2YO · Heavens-Above · Gunter

§ Orbital elements

Epoch: 2026-09-20T04:08:29.311872Z

Period
93.10 min
Inclination
53.0325°
Eccentricity
0.0003494
Mean motion
15.46746295 rev/d
Perigee alt
423.9 km
Apogee alt
428.6 km
Semi-major
6,804.4 km
B*
5.1766e-4
RAAN
104.9606°
Arg perigee
86.6594°
Mean anomaly
273.4811°
Rev number
33,529

§ Raw data

STARLINK-15531 46348U 20062Z   26263.17256148  .00025987  00000+0  51766-3 0  99962 46348  53.0325 104.9606 0003494  86.6594 273.4811 15.46746295335296

JSON: /api/v1/satellites/46348 · /tle

For live sub-satellite position, see the globe view (requires WebGL).

§ Visibility from observer

Set your observer location to see the next 7 days of passes ≥ 10°. The values pass through the URL so the page stays shareable.

No JS? Fill the form by hand. The geolocation button needs JavaScript.